Location: Linz
(48.3300°N, 14.3000°E)
Time: 16:43:09
(UTC+01:00)

N. Korean satellite - Pass Details

Date: 19 November 2017
Orbit: 460 x 514 km, 97.2° (Epoch: 20 November)

Event Time Altitude Azimuth Distance (km) Brightness Sun altitude
Rises 18:06:17 0° 173° (S) 2,490 10.2 -17.5°
Reaches altitude 10° 18:08:19 10° 177° (S) 1,625 9.3 -17.8°
Maximum altitude 18:11:47 63° 259° (W) 534 6.9 -18.4°
Drops below altitude 10° 18:15:20 10° 341° (NNW) 1,667 9.4 -18.9°
Sets 18:17:27 0° 345° (NNW) 2,562 10.3 -19.3°
